User: anonymous   Login
Location: Newark
(42.9858°N, 0.6717°E)
Time: 16:01:44
(UTC+00:00)
Language:

A-11 Canister half - Orbit

View from above orbital plane
View from above orbital plane
View from above satellite
View from above satellite

Ground track
Ground track

The orbit data is extracted from the following two-line orbital elements,

1    51U 60009C   19325.87644627 -.00000170 +00000-0 -83497-3 0  9999
2    51 047.2124 272.7002 0107220 264.3804 094.4749 12.18274566638665
Epoch (UTC): 21 November 2019 21:02:04
Eccentricity: 0.0107220
inclination: 47.2124°
perigee height: 1514 km
apogee height: 1685 km
right ascension of ascending node: 272.7002°
argument of perigee: 264.3804°
revolutions per day: 12.18274566
mean anomaly at epoch: 94.4749°
orbit number at epoch: 63866

The dashed part of the orbit path shows where the satellite is in the earth's shadow,  

DLR